* Astronomy

Members Login
Username 
 
Password 
    Remember Me  
Post Info TOPIC: CZ-3C rockeyt body re-entry


L

Posts: 131433
Date:
RE: CZ-3C rockeyt body re-entry
Permalink  
 


Update:
The Chang Zheng-3c rocket body is predicted to re-enter the Earths atmosphere on the 25th October, 2011 @ 03:38 GMT 10 hours.

CZ-3C R/B
1 37738U 11032B   11296.50379946 +.38613764 -29829-4 +13528-2 0 00509
2 37738 017.8149 102.1364 2689613 294.2015 069.4379 10.42170281002764

Period: 138.17 minutes
Inclination: 17.81
Apogee: 4856 km
Perigee: 94 km
Revolution Number: 310
Predicted Location: 14.1S, 310.4E



__________________


L

Posts: 131433
Date:
Permalink  
 

Update:
The Chang Zheng-3c rocket body is predicted to re-enter the Earths atmosphere on the 25th October, 2011 @ 20:21 GMT 18 hours.

CZ-3C RB
1 37738U 11032B   11296.50379946 +.38613764 -29829-4 +13528-2 0 00509
2 37738 017.8149 102.1364 2689613 294.2015 069.4379 10.42170281002764

Period: 138.17 minutes
Inclination: 17.81
Apogee: 4856 km
Perigee: 94 km
Revolution Number: 306
Predicted Location: 11S, 75.5E



__________________


L

Posts: 131433
Date:
Permalink  
 

Update:
The Chang Zheng-3c rocket body is predicted to re-enter the Earths atmosphere on the 26th October, 2011 @ 11:36 GMT 48 hours.

CZ-3C RB
1 37738U 11032B   11295.81111352 +.31570404 -27480-4 +16078-2 0 00484
2 37738 017.8053 104.4242 2929045 289.8402 057.0817 09.89887932002705

Period: 138.17 minutes
Inclination: 17.81
Apogee: 4856 km
Perigee: 94 km
Revolution Number: 314
Predicted Location: 12.3S, 103.2E



__________________


L

Posts: 131433
Date:
Permalink  
 

A Chang Zheng-3c rocket body that was launched on the 11th July, 2011, from the Jiuquan lauinch site, for the Tiangong 1B mission is predicted to re-enter the Earths atmosphere on the 26th October, 2011 @ 07:34 GMT 48 hours.

CZ-3C RB
1 37738U 11032B   11295.18313657  .29845114 -25898-4  10224-2 0   462
2 37738 017.8206 106.3619 3125508 286.1385 023.7130 09.51266171  2632

Period: 152.72 minutes
Inclination: 17.82
Apogee: 6070 km
Perigee: 102 km
Revolution Number: 312
Predicted Location: 13.5S, 253E



__________________
Page 1 of 1  sorted by
 
Quick Reply

Please log in to post quick replies.



Create your own FREE Forum
Report Abuse
Powered by ActiveBoard